Location: Round Knob
(37.2473°N, 88.7376°W)
Time: 01:37:05
(UTC+00:00)

N. Korean satellite - Visible Passes

Search period start: 27 September 2021 00:00
Search period end: 07 October 2021 00:00
Orbit: 449 x 498 km, 97.3° (Epoch: 26 September)

Date Brightness Start Highest point End Pass type
(mag) Time Alt. Az. Time Alt. Az. Time Alt. Az.
27 Sep 9.2 10:29:36 10° NE 10:32:29 23° E 10:35:24 10° SSE visible
29 Sep 6.8 11:06:32 10° NNE 11:10:08 77° E 11:13:46 10° S visible
30 Sep 8.7 10:39:02 10° NE 10:42:16 30° E 10:45:30 10° SSE visible
01 Oct 9.9 10:12:25 10° ENE 10:14:17 14° E 10:16:10 10° SE visible
02 Oct 6.5 11:16:11 10° N 11:19:48 76° WNW 11:23:26 10° SSW visible
03 Oct 8.0 10:48:28 10° NNE 10:51:56 41° E 10:55:24 10° S visible
04 Oct 9.6 10:21:23 10° NE 10:23:57 18° E 10:26:32 10° SE visible
05 Oct 6.7 11:25:48 10° N 11:29:21 55° WNW 11:32:55 10° SSW visible
06 Oct 7.3 10:57:53 10° NNE 11:01:29 58° E 11:05:05 10° S visible
